Location: Grand Lay
(47.3253°N, 0.9468°E)
Time: 07:52:18
(UTC+00:00)

Meteor 2-19 Rocket - Pass Details

Date: 18 January 2026
Orbit: 935 x 959 km, 82.5° (Epoch: 15 February)

Event Time Altitude Azimuth Distance (km) Brightness Sun altitude
Rises 05:56:01 0° 350° (N) 3,612 7.3 -16.7°
Reaches altitude 10° 05:58:31 10° 351° (N) 2,661 6.6 -16.3°
Maximum altitude 06:04:37 88° 81° (E) 943 4.4 -15.3°
Drops below altitude 10° 06:10:39 10° 172° (S) 2,638 7.1 -14.3°
Sets 06:13:07 0° 172° (S) 3,579 7.8 -13.9°
